User: anonymous   Login
Location: Oshawa
(43.9000°N, 78.8670°W)
Time: 06:14:43
(UTC-04:00)
Language:

Cosmos 839 Rocket - Orbit

View from above orbital plane
View from above orbital plane
View from above satellite
View from above satellite

Ground track
Ground track

The orbit data is extracted from the following two-line orbital elements,

1  9013U 76067B   18113.55729365 -.00000116 +00000-0 -19617-3 0  9992
2  9013 065.8619 123.8794 0720230 311.1528 225.0652 12.35334701884741
Epoch (UTC): 23 April 2018 13:22:30
Eccentricity: 0.0720230
inclination: 65.8619°
perigee height: 957 km
apogee height: 2096 km
right ascension of ascending node: 123.8794°
argument of perigee: 311.1528°
revolutions per day: 12.35334701
mean anomaly at epoch: 225.0652°
orbit number at epoch: 88474

The dashed part of the orbit path shows where the satellite is in the earth's shadow,  

DLR